Satellite: FO-70
Catalog number: 37380
Epoch time:      11327.43140806
Element set:    0036
Inclination:      071.9738 deg
RA of node:       048.4073 deg
Eccentricity:    0.0018260
Arg of perigee:   337.2671 deg
Mean anomaly:     022.7645 deg
Mean motion:   14.76553400 rev/day
Decay rate:      1.227e-05 rev/day^2
Epoch rev:           00546
Checksum:              281

/EX
SB KEPS @ AMSAT  $ORB11328.W
Orbital Elements  11328.WEATHER

HR AMSAT ORBITAL ELEMENTS FOR WEATHER SATELLITES
FROM WA5QGD FORT WORTH,TX November 24, 2011
Send Subscribe/unsubscribe to KEPS at http://www.amsat.org/mailman/listinfo/kep
BID: ORB11328.W
TO ALL RADIO AMATEURS BT

Satellite: NOAA-10
Catalog number: 16969
Epoch time:      11327.95294115
Element set:    0716
Inclination:      098.6056 deg
RA of node:       355.4503 deg
Eccentricity:    0.0012878
Arg of perigee:   115.8313 deg
Mean anomaly:     244.4196 deg
Mean motion:   14.27502641 rev/day
Decay rate:       1.97e-06 rev/day^2
Epoch rev:           31044
Checksum:              304

Satellite: NOAA-11
Catalog number: 19531
Epoch time:      11327.66226058
Element set:    0710
Inclination:      098.7472 deg
RA of node:       052.0598 deg
Eccentricity:    0.0011924
Arg of perigee:   092.9676 deg
Mean anomaly:     267.2878 deg
Mean motion:   14.14939290 rev/day
Decay rate:        5.2e-07 rev/day^2
Epoch rev:           19530
Checksum:              318

Satellite: NOAA-12
Catalog number: 21263
Epoch time:      11327.96520194
Element set:    0223
Inclination:      098.7447 deg
RA of node:       345.4547 deg
Eccentricity:    0.0014691
Arg of perigee:   080.5690 deg
Mean anomaly:     279.7149 deg
Mean motion:   14.25457062 rev/day
Decay rate:       1.27e-06 rev/day^2
Epoch rev:           06717
Checksum:              310

Satellite: MET-3/5
Catalog number: 21655
Epoch time:      11327.66765929
Element set:    0268
Inclination:      082.5555 deg
RA of node:       298.0885 deg
Eccentricity:    0.0014574
Arg of perigee:   115.3833 deg
Mean anomaly:     244.8833 deg
Mean motion:   13.17033096 rev/day
Decay rate:        5.1e-07 rev/day^2
Epoch rev:           97471
Checksum:              332

Satellite: MET-2/21
Catalog number: 22782
Epoch time:      11328.71823315
Element set:     264
Inclination:      082.5485 deg
RA of node:       195.5187 deg
Eccentricity:    0.0022900
Arg of perigee:   012.5111 deg
Mean anomaly:     347.6608 deg
Mean motion:   13.83669198 rev/day
Decay rate:        6.5e-07 rev/day^2
Epoch rev:           92075
Checksum:              308

Satellite: OKEAN-4
Catalog number: 23317
Epoch time:      11327.92079638
Element set:    0765
Inclination:      082.5414 deg
RA of node:       223.9578 deg
Eccentricity:    0.0020726
Arg of perigee:   316.8949 deg
Mean anomaly:     043.0639 deg
Mean motion:   14.83385585 rev/day
Decay rate:      1.926e-05 rev/day^2
Epoch rev:           92422
Checksum:              334

Satellite: NOAA-14
Catalog number: 23455
Epoch time:      11327.90327904
Element set:    0704
Inclination:      098.8443 deg
RA of node:       048.8768 deg
Eccentricity:    0.0009162
Arg of perigee:   181.9288 deg
Mean anomaly:     178.1847 deg
Mean motion:   14.13855241 rev/day
Decay rate:       2.32e-06 rev/day^2
Epoch rev:           87164
Checksum:              328

Satellite: NOAA-15
Catalog number: 25338
Epoch time:      11327.91037696
Element set:    0032
Inclination:      098.6711 deg
RA of node:       312.0023 deg
Eccentricity:    0.0010702
Arg of perigee:   353.4047 deg
Mean anomaly:     006.6985 deg
Mean motion:   14.24991859 rev/day
Decay rate:       4.78e-06 rev/day^2
Epoch rev:           70347
Checksum:              302

Satellite: RESURS
Catalog number: 25394
Epoch time:      11327.93307306
Element set:    0964
Inclination:      098.3063 deg
RA of node:       322.2155 deg
Eccentricity:    0.0002074
Arg of perigee:   103.1546 deg
Mean anomaly:     256.9865 deg
Mean motion:   14.24257283 rev/day
Decay rate:       1.45e-06 rev/day^2
Epoch rev:           69504
Checksum:              291

Satellite: FENGYUN1
Catalog number: 25730
Epoch time:      11328.89295736
Element set:     477
Inclination:      098.8314 deg
RA of node:       286.6945 deg
Eccentricity:    0.0022101
Arg of perigee:   228.1259 deg
Mean anomaly:     131.8025 deg
Mean motion:   14.09085069 rev/day
Decay rate:      1.651e-05 rev/day^2
Epoch rev:           64569
Checksum:              321

Satellite: OKEAN-0
Catalog number: 25860
Epoch time:      11327.97680804
Element set:    0475
Inclination:      097.9062 deg
RA of node:       290.2331 deg
Eccentricity:    0.0001064
Arg of perigee:   109.3692 deg
Mean anomaly:     250.7631 deg
Mean motion:   14.73969047 rev/day
Decay rate:      1.291e-05 rev/day^2
Epoch rev:           66419
Checksum:              309

Satellite: NOAA-16
Catalog number: 26536
Epoch time:      11327.86571478
Element set:    0513
Inclination:      099.1248 deg
RA of node:       001.5237 deg
Eccentricity:    0.0009918
Arg of perigee:   306.0875 deg
Mean anomaly:     053.9358 deg
Mean motion:   14.12674662 rev/day
Decay rate:       4.61e-06 rev/day^2
Epoch rev:           57590
Checksum:              324

